This is the latest recevied weather packets stored in our database for station/object N3WPH. If no packets are shown the sender has not sent any weather packets the latest 10 day(s).
| Time | Temp. | Humidity | Pressure | Rain* | Wind** | Luminosity | Snow |
|---|---|---|---|---|---|---|---|
| 1777940006 | 19.44° C | 42% | 1007.6 hPa | 0 mm | - | 1 W/m² | - |
| 1777939704 | 19.44° C | 42% | 1008 hPa | 0 mm | - | 2 W/m² | - |
| 1777939402 | 20° C | 42% | 1007.9 hPa | 0 mm | - | 3 W/m² | - |
| 1777939098 | 20° C | 41% | 1007.9 hPa | 0 mm | - | 6 W/m² | - |
| 1777938795 | 20° C | 42% | 1008 hPa | 0 mm | - | 8 W/m² | - |
| 1777938492 | 20° C | 41% | 1007.9 hPa | 0 mm | - | 10 W/m² | - |
| 1777938189 | 20° C | 41% | 1007.6 hPa | 0 mm | - | 13 W/m² | - |
| 1777937886 | 20° C | 41% | 1007.5 hPa | 0 mm | - | 16 W/m² | - |
| 1777937581 | 20.56° C | 40% | 1007.8 hPa | 0 mm | - | 19 W/m² | - |
| 1777937278 | 20.56° C | 40% | 1007.7 hPa | 0 mm | - | 21 W/m² | - |
| 1777936975 | 20.56° C | 40% | 1007.5 hPa | 0 mm | - | 23 W/m² | - |
| 1777936672 | 20.56° C | 39% | 1007.6 hPa | 0 mm | - | 25 W/m² | - |
| 1777936369 | 20.56° C | 39% | 1007.4 hPa | 0 mm | - | 27 W/m² | - |
| 1777936065 | 20.56° C | 39% | 1007.3 hPa | 0 mm | - | 31 W/m² | - |
| 1777935763 | 21.11° C | 38% | 1007.3 hPa | 0 mm | - | 33 W/m² | - |
| 1777935462 | 21.11° C | 38% | 1007.1 hPa | 0 mm | - | 35 W/m² | - |
| 1777935157 | 21.11° C | 37% | 1007.3 hPa | 0 mm | - | 37 W/m² | - |
| 1777934855 | 21.11° C | 38% | 1007.1 hPa | 0 mm | - | 38 W/m² | - |
| 1777934552 | 21.11° C | 36% | 1007.1 hPa | 0 mm | - | 38 W/m² | - |
| 1777934248 | 21.67° C | 37% | 1007.2 hPa | 0 mm | - | 41 W/m² | - |
| 1777933944 | 21.67° C | 38% | 1007.4 hPa | 0 mm | - | 43 W/m² | - |
| 1777933641 | 21.67° C | 37% | 1006.9 hPa | 0 mm | - | 45 W/m² | - |
| 1777933338 | 21.67° C | 36% | 1007.3 hPa | 0 mm | - | 48 W/m² | - |
| 1777933035 | 21.67° C | 36% | 1007.2 hPa | 0 mm | - | 64 W/m² | - |
| 1777932732 | 21.67° C | 37% | 1007.2 hPa | 0 mm | - | 87 W/m² | - |
* Rain latest hour (hover to see other rain measurements)
** Current wind speed in m/s (hover to see current wind gust speed)